Retour au catalogue

STARLINK-36053

ActifCommunicationsVLEO
NORAD 66875·PAYLOAD·🇺🇸 United States

Lancé Dec 2, 2025 depuis Cape Canaveral Space Force Station

Loading…

Prochains Passages (prochaines 24 heures)

TLE

FraisSource: CelesTrak SupGP

Époque: Sep 14, 2026, 21:12 UTC

1 66875C 25281AD  26257.88381944 -.00002615  00000+0 -94747-4 0  2574
2 66875  43.0015 354.8745 0001529 268.0586  22.7146 15.27572069    12

Suivez STARLINK-36053 en temps réel avec AllMySat

Download on the App Store